Simultaneous Nadir Overpasses (SNOs) Predictions

Prediction of SNOs between GOES-15 and METOP-C Satellite Orbit:

Table of predicted SNOs for the next 14.0 days since TLE Epoch: 6/14/2024
Index Date Time (GOES-15) GOES-15 Lat,Lon METOP-C Lat,Lon Distance(km) Time Diff (sec)
1 06/15/2024 17:37:27 0.17, 61.34 -0.43, 58.57 315.66 80
2 06/16/2024 17:14:08 0.19, 61.33 0.68, 63.56 254.14 80
3 06/18/2024 05:35:40 -0.16, 61.29 0.35, 59.01 260.35 80
4 06/19/2024 05:12:23 -0.18, 61.28 -0.82, 63.99 308.66 80
5 06/20/2024 17:34:04 0.15, 61.31 -0.29, 59.40 217.16 80
6 06/21/2024 17:10:47 0.18, 61.30 0.89, 64.38 351.59 80
7 06/23/2024 05:32:18 -0.15, 61.27 0.19, 59.84 164.11 80
8 06/24/2024 05:09:01 -0.18, 61.27 -0.98, 64.82 403.95 80
9 06/25/2024 17:30:42 0.15, 61.31 -0.10, 60.23 123.02 80
10 06/26/2024 17:07:24 0.18, 61.31 1.08, 65.21 445.25 80
11 06/28/2024 05:28:56 -0.15, 61.28 -0.00, 60.66 70.46 80
